Steamboat Springs, CO

1:22 PM MST on February 19, 2018 (GMT -0700)
Steamboat Springs-Adams

Weather History for KSBS - October, 2012

Change the Weather History Date:

Monday, October 8, 2012

  Actual Average Record
Temperature  
Mean Temperature 40 °F -  
Max Temperature 63 °F 62 °F 84 °F (1910)
Min Temperature 18 °F 25 °F 10 °F (1992)
Degree Days  
Heating Degree Days 24    
Moisture  
Dew Point -4 °F    
Average Humidity 25    
Maximum Humidity 58    
Minimum Humidity 4    
Precipitation  
Precipitation 0.00 in - - ()
Sea Level Pressure  
Sea Level Pressure 30.09 in    
Wind  
Wind Speed 2 mph (SW)    
Max Wind Speed 18 mph    
Max Gust Speed 29 mph    
Visibility 10 miles    
Events      
Averages and records for this station are not official NWS values.
T = Trace of Precipitation, MM = Missing Value Source: NWS Daily Summary

Daily Weather History Graph

Daily Weather History Graph

Search for Another Location

Airport or City:

Trip Planner

Search our weather history database for the weather conditions in past years. The results will help you decide how hot, cold, wet, or windy it might be!

Date:

Astronomy

Oct. 08, 2012 Rise Set
Actual Time 7:11 AM MDT 6:37 PM MDT
Civil Twilight 6:44 AM MDT 7:04 PM MDT
Nautical Twilight 6:12 AM MDT 7:36 PM MDT
Astronomical Twilight 5:41 AM MDT 8:07 PM MDT
Moon No Moon Rise 2:30 PM MDT (10/8)
Length of Visible Light 12h 20m
Length of Day
11h 25m
Last Quarter, 46% of the Moon is Illuminated
Oct 8
Last Quarter
Oct 15
New
Oct 21
First Quarter
Oct 29
Full
Nov 6
Last Quarter

Hourly Weather History & Observations

Time (MDT) Temp. Windchill Dew Point Humidity Pressure Visibility Wind Dir Wind Speed Gust Speed Precip Events Conditions
12:13 AM 28.4 °F - 2.3 °F 33% 30.17 in 10.0 mi Calm Calm - N/A   Clear
12:33 AM 28.2 °F - 1.8 °F 32% 30.18 in 10.0 mi Calm Calm - N/A   Clear
12:53 AM 26.8 °F - 2.8 °F 36% 30.17 in 10.0 mi Calm Calm - N/A   Clear
1:13 AM 28.4 °F - 1.6 °F 32% 30.17 in 10.0 mi Calm Calm - N/A   Clear
1:33 AM 26.2 °F - 2.3 °F 36% 30.17 in 10.0 mi Calm Calm - N/A   Clear
1:53 AM 25.5 °F - 2.5 °F 37% 30.18 in 10.0 mi Calm Calm - N/A   Clear
2:12 AM 23.0 °F 18.4 °F 4.8 °F 46% 30.18 in 10.0 mi ESE 3.5 mph - N/A   Clear
2:33 AM 24.3 °F - 4.5 °F 43% 30.18 in 10.0 mi Calm Calm - N/A   Clear
2:53 AM 23.9 °F - 3.9 °F 42% 30.18 in 10.0 mi Calm Calm - N/A   Clear
3:13 AM 23.0 °F - 4.3 °F 45% 30.17 in 10.0 mi Calm Calm - N/A   Clear
3:33 AM 23.7 °F - 3.2 °F 41% 30.16 in 10.0 mi Calm Calm - N/A   Clear
3:53 AM 24.3 °F - 3.2 °F 40% 30.16 in 10.0 mi Calm Calm - N/A   Clear
4:13 AM 22.5 °F - 3.7 °F 45% 30.16 in 10.0 mi Calm Calm - N/A   Clear
4:33 AM 22.5 °F - 4.6 °F 46% 30.16 in 10.0 mi Calm Calm - N/A   Clear
4:53 AM 21.2 °F - 4.6 °F 49% 30.16 in 10.0 mi Calm Calm - N/A   Clear
5:13 AM 20.1 °F - 6.6 °F 56% 30.16 in 10.0 mi Calm Calm - N/A   Clear
5:33 AM 20.3 °F - 6.4 °F 55% 30.16 in 10.0 mi Calm Calm - N/A   Clear
5:53 AM 20.5 °F - 5.4 °F 52% 30.16 in 10.0 mi Calm Calm - N/A   Clear
6:13 AM 19.9 °F - 5.0 °F 52% 30.16 in 10.0 mi Calm Calm - N/A   Clear
6:33 AM 20.8 °F - 4.6 °F 50% 30.16 in 10.0 mi Calm Calm - N/A   Clear
6:53 AM 20.5 °F - 4.3 °F 50% 30.16 in 10.0 mi Calm Calm - N/A   Clear
7:12 AM 18.5 °F - 4.8 °F 55% 30.16 in 10.0 mi Calm Calm - N/A   Clear
7:33 AM 18.0 °F - 5.0 °F 57% 30.16 in 10.0 mi Calm Calm - N/A   Clear
7:53 AM 19.6 °F - 5.9 °F 55% 30.16 in 10.0 mi Calm Calm - N/A   Clear
8:13 AM 20.5 °F - 7.9 °F 58% 30.16 in 10.0 mi Calm Calm - N/A   Clear
8:33 AM 23.5 °F - 7.7 °F 51% 30.16 in 10.0 mi Calm Calm - N/A   Clear
8:41 AM 24.3 °F - 7.5 °F 49% 30.16 in 10.0 mi Calm Calm - N/A   Clear
9:01 AM 28.2 °F - 7.2 °F 41% 30.16 in 10.0 mi Calm Calm - N/A   Clear
9:22 AM 30.2 °F - 5.9 °F 36% 30.16 in 10.0 mi Calm Calm - N/A   Clear
9:43 AM 34.0 °F - 4.5 °F 29% 30.15 in 10.0 mi Calm Calm - N/A   Clear
10:02 AM 36.3 °F - 3.6 °F 25% 30.15 in 10.0 mi Calm Calm - N/A   Clear
10:23 AM 39.4 °F - 2.7 °F 22% 30.14 in 10.0 mi Calm Calm - N/A   Clear
10:42 AM 41.4 °F - 2.5 °F 20% 30.13 in 10.0 mi Calm Calm - N/A   Clear
11:01 AM 45.1 °F - 2.7 °F 17% 30.12 in 10.0 mi Calm Calm - N/A   Clear
11:22 AM 49.8 °F - -2.0 °F 12% 30.11 in 10.0 mi Calm Calm - N/A   Clear
11:41 AM 52.5 °F - -5.1 °F 9% 30.10 in 10.0 mi East 3.5 mph - N/A   Clear
12:00 PM 53.2 °F - -5.1 °F 9% 30.10 in 10.0 mi SSE 4.6 mph - N/A   Clear
12:21 PM 54.7 °F - -5.8 °F 8% 30.09 in 10.0 mi Calm Calm - N/A   Clear
12:41 PM 56.1 °F - -8.0 °F 7% 30.08 in 10.0 mi Calm Calm - N/A   Clear
1:01 PM 57.9 °F - -9.4 °F 6% 30.07 in 10.0 mi SW 6.9 mph - N/A   Clear
1:20 PM 58.6 °F - -8.5 °F 6% 30.06 in 10.0 mi Calm Calm - N/A   Clear
1:39 PM 60.1 °F - -9.2 °F 6% 30.04 in 10.0 mi SW 6.9 mph - N/A   Clear
2:00 PM 60.1 °F - -10.3 °F 5% 30.04 in 10.0 mi WSW 9.2 mph 20.7 mph N/A   Clear
2:33 PM 61.3 °F - -12.3 °F 5% 30.02 in 10.0 mi SW 8.1 mph - N/A   Clear
2:53 PM 61.5 °F - -13.4 °F 5% 30.02 in 10.0 mi West 16.1 mph 20.7 mph N/A   Clear
3:13 PM 61.7 °F - -16.1 °F 4% 30.01 in 10.0 mi WSW 10.4 mph 20.7 mph N/A   Clear
3:32 PM 62.6 °F - -18.6 °F 4% 30.01 in 10.0 mi WSW 13.8 mph 23.0 mph N/A   Clear
3:52 PM 63.0 °F - -19.5 °F 4% 30.00 in 10.0 mi WSW 16.1 mph 23.0 mph N/A   Clear
4:13 PM 63.1 °F - -24.5 °F 4% 30.00 in 10.0 mi WSW 10.4 mph 23.0 mph N/A   Clear
4:33 PM 63.1 °F - -25.8 °F 4% 29.99 in 10.0 mi WSW 13.8 mph 20.7 mph N/A   Clear
4:53 PM 62.8 °F - -29.0 °F 4% 29.99 in 10.0 mi WSW 16.1 mph 23.0 mph N/A   Clear
5:13 PM 61.7 °F - -31.2 °F 4% 29.99 in 10.0 mi West 16.1 mph 28.8 mph N/A   Clear
5:33 PM 61.3 °F - -27.2 °F 4% 29.99 in 10.0 mi WSW 18.4 mph 21.9 mph N/A   Clear
5:53 PM 60.3 °F - -26.7 °F 4% 30.00 in 10.0 mi West 11.5 mph 18.4 mph N/A   Clear
6:13 PM 58.8 °F - -22.0 °F 4% 30.00 in 10.0 mi West 10.4 mph 17.3 mph N/A   Clear
6:33 PM 55.9 °F - -18.9 °F 4% 30.01 in 10.0 mi West 9.2 mph - N/A   Clear
6:53 PM 53.6 °F - -16.2 °F 5% 30.01 in 10.0 mi West 5.8 mph - N/A   Clear
7:13 PM 52.9 °F - -15.2 °F 6% 30.01 in 10.0 mi Calm Calm - N/A   Clear
7:33 PM 52.2 °F - -14.6 °F 6% 30.02 in 10.0 mi Calm Calm - N/A   Clear
8:13 PM 51.3 °F - -12.6 °F 7% 30.02 in 10.0 mi Calm Calm - N/A   Clear
8:33 PM 48.9 °F - -12.1 °F 8% 30.02 in 10.0 mi East 3.5 mph - N/A   Clear
8:53 PM 47.5 °F - -9.6 °F 9% 30.02 in 10.0 mi ESE 3.5 mph - N/A   Clear
9:13 PM 42.4 °F - -6.0 °F 13% 30.03 in 10.0 mi Calm Calm - N/A   Clear
9:52 PM 42.6 °F - -6.9 °F 12% 30.03 in 10.0 mi Calm Calm - N/A   Clear
10:13 PM 42.8 °F - -4.9 °F 13% 30.04 in 10.0 mi Calm Calm - N/A   Clear
10:33 PM 41.0 °F - -4.0 °F 15% 30.04 in 10.0 mi Calm Calm - N/A   Clear
10:42 PM 40.5 °F - -3.8 °F 15% 30.04 in 10.0 mi Calm Calm - N/A   Clear
11:00 PM 39.0 °F - -3.3 °F 17% 30.05 in 10.0 mi Calm Calm - N/A   Clear
11:22 PM 38.5 °F - -1.5 °F 19% 30.05 in 10.0 mi Calm Calm - N/A   Clear
11:40 PM 38.7 °F - -2.2 °F 18% 30.05 in 10.0 mi Calm Calm - N/A   Clear